Weather History for Juliana Airport, St. Martin

Change the Weather History Date:

Thursday, October 21, 2010

  Actual Average Record
Temperature  
Mean Temperature 82 °F -  
Max Temperature 86 °F 85 °F 89 °F (2000)
Min Temperature 78 °F 75 °F 73 °F (2004)
Cooling Degree Days 17    
Growing Degree Days 32 (Base 50)    
Moisture  
Dew Point 74 °F    
Average Humidity 73    
Maximum Humidity 89    
Minimum Humidity 58    
Precipitation  
Precipitation 0.00 in 0.16 in - ()
Sea Level Pressure  
Sea Level Pressure 29.93 in    
Wind  
Wind Speed 6 mph ()    
Max Wind Speed 10 mph    
Max Gust Speed -    
Visibility 6.7 miles    
Events Rain    
Averages and records for this station are not official NWS values.
T = Trace of Precipitation, MM = Missing Value Source: Averaged Metar Reports

Daily Weather History Graph

Daily Weather History Graph

Search for Another Location

Airport:

Trip Planner

Search our weather history database for the weather conditions in past years. The results will help you decide how hot, cold, wet, or windy it might be!

Date:

Astronomy

Oct. 21, 2010 Rise Set
Actual Time 6:07 AM AST 5:46 PM AST
Civil Twilight 5:45 AM AST 6:08 PM AST
Nautical Twilight 5:20 AM AST 6:33 PM AST
Astronomical Twilight 4:54 AM AST 6:59 PM AST
Moon 4:44 PM AST (10/21) 4:47 AM AST (10/21)
Length of Visible Light 12h 22m
Length of Day
11h 38m
Waxing Gibbous, 98% of the Moon is Illuminated
Oct 21
Waxing Gibbous
Oct 22
Full
Oct 30
Last Quarter
Nov 6
New
Nov 13
First Quarter

Hourly Weather History & Observations

Time (AST) Temp. Heat Index Dew Point Humidity Pressure Visibility Wind Dir Wind Speed Gust Speed Precip Events Conditions
12:00 AM 82.4 °F 88.2 °F 73.4 °F 74% 29.95 in 6.2 mi SE 8.1 mph - N/A   Partly Cloudy
1:00 AM 82.4 °F 88.2 °F 73.4 °F 74% 29.92 in 6.2 mi SE 6.9 mph - N/A   Partly Cloudy
2:00 AM 82 °F - 73 °F 67% 29.92 in 25 mi ESE 5.8 mph - -   Scattered Clouds
2:00 AM 82.4 °F 88.2 °F 73.4 °F 74% 29.92 in 6.2 mi ESE 5.8 mph - N/A   Partly Cloudy
3:00 AM 78.8 °F - 75.2 °F 89% 29.89 in 6.2 mi ENE 5.8 mph - N/A   Scattered Clouds
4:00 AM 80.6 °F 85.4 °F 73.4 °F 79% 29.89 in 6.2 mi ENE 3.5 mph - N/A   Mostly Cloudy
5:00 AM 78 °F - 74 °F 86% 29.92 in 19 mi East 3.5 mph - - Rain Light Rain Showers
5:00 AM 78.8 °F - 75.2 °F 89% 29.92 in 6.2 mi ENE 5.8 mph - N/A   Partly Cloudy
6:00 AM 80.6 °F 86.2 °F 75.2 °F 84% 29.92 in 6.2 mi East 2.3 mph - N/A   Scattered Clouds
7:00 AM 82.4 °F 90.9 °F 77.0 °F 84% 29.95 in 6.2 mi ESE 8.1 mph - N/A   Mostly Cloudy
8:00 AM 83 °F - 75 °F 71% 29.96 in 37 mi SSE 4.6 mph - -   Partly Cloudy
8:00 AM 84.2 °F 92.3 °F 75.2 °F 74% 29.95 in 6.2 mi SSE 4.6 mph - N/A   Partly Cloudy
9:00 AM 86.0 °F 95.1 °F 75.2 °F 70% 29.98 in 6.2 mi SSE 8.1 mph - N/A   Partly Cloudy
10:00 AM 84.2 °F 94.1 °F 77.0 °F 79% 29.98 in 6.2 mi SSE 9.2 mph - N/A Rain Light Rain Showers
11:00 AM 86 °F - 75 °F 64% 29.99 in 37 mi SSE 10.4 mph - - Rain Light Rain Showers
11:00 AM 86.0 °F 95.1 °F 75.2 °F 70% 29.98 in 6.2 mi SSE 10.4 mph - N/A   Scattered Clouds
12:00 PM 86.0 °F 95.1 °F 75.2 °F 70% 29.95 in 6.2 mi SSE 9.2 mph - N/A   Partly Cloudy
1:00 PM 86.0 °F 95.1 °F 75.2 °F 70% 29.92 in 6.2 mi SSE 6.9 mph - N/A   Scattered Clouds
2:00 PM 86 °F - 74 °F 59% 29.91 in 47 mi SSE 9.2 mph - -   Partly Cloudy
2:00 PM 86.0 °F 93.4 °F 73.4 °F 66% 29.89 in 6.2 mi SSE 9.2 mph - N/A   Partly Cloudy
3:00 PM 86.0 °F 93.4 °F 73.4 °F 66% 29.89 in 6.2 mi SE 10.4 mph - N/A   Partly Cloudy
4:00 PM 86.0 °F 91.8 °F 71.6 °F 62% 29.89 in 6.2 mi SE 9.2 mph - N/A   Partly Cloudy
5:00 PM 84 °F - 71 °F 58% 29.91 in 47 mi SSE 6.9 mph - -   Scattered Clouds
5:00 PM 84.2 °F 89.6 °F 71.6 °F 66% 29.89 in 6.2 mi SE 6.9 mph - N/A   Partly Cloudy
6:00 PM 82.4 °F 88.2 °F 73.4 °F 74% 29.89 in 6.2 mi SE 6.9 mph - N/A   Partly Cloudy
7:00 PM 82.4 °F 88.2 °F 73.4 °F 74% 29.92 in 6.2 mi Variable 3.5 mph - N/A   Partly Cloudy
8:00 PM 82 °F - 73 °F 67% 29.95 in 37 mi ESE 4.6 mph - -   Scattered Clouds
8:00 PM 82.4 °F 88.2 °F 73.4 °F 74% 29.95 in 6.2 mi East 4.6 mph - N/A   Partly Cloudy
9:00 PM 80.6 °F 84.6 °F 71.6 °F 74% 29.95 in 6.2 mi East 4.6 mph - N/A   Partly Cloudy
10:00 PM 80.6 °F 84.6 °F 71.6 °F 74% 29.98 in 6.2 mi East 4.6 mph - N/A   Scattered Clouds
11:00 PM 79 °F - 73 °F 78% 29.99 in 31 mi 2.3 mph - -   Scattered Clouds
11:00 PM 78.8 °F - 73.4 °F 83% 29.98 in 6.2 mi Variable 2.3 mph - N/A   Partly Cloudy